Honolulu, HI

10:51 AM HST on August 21, 2017 (GMT -1000)
Honolulu International

Weather History for PHNL - March, 2013

Change the Weather History Date:

Monday, March 4, 2013

  Actual Average Record
Temperature  
Mean Temperature 75 °F 74 °F  
Max Temperature 80 °F 81 °F 85 °F (1974)
Min Temperature 70 °F 67 °F 59 °F (1979)
Degree Days  
Heating Degree Days 0 0  
Month to date heating degree days 0 0  
Since 1 July heating degree days 0 0  
Cooling Degree Days 10 9  
Month to date cooling degree days 42 35  
Year to date cooling degree days 540 517  
Growing Degree Days 25 (Base 50)    
Moisture  
Dew Point 55 °F    
Average Humidity 52    
Maximum Humidity 61    
Minimum Humidity 42    
Precipitation  
Precipitation 0.00 in 0.06 in 1.06 in (1964)
Month to date precipitation T 0.26  
Year to date precipitation 3.07 4.56  
Snow  
Snow 0.00 in - - ()
Month to date snowfall 0.0  
Since 1 July snowfall 0.0  
Snow Depth 0.00 in    
Sea Level Pressure  
Sea Level Pressure 30.15 in    
Wind  
Wind Speed 14 mph (NE)    
Max Wind Speed 24 mph    
Max Gust Speed 30 mph    
Visibility 10 miles    
Events      
T = Trace of Precipitation, MM = Missing Value Source: NWS Daily Summary

Daily Weather History Graph

Daily Weather History Graph

Search for Another Location

Airport or City:

Trip Planner

Search our weather history database for the weather conditions in past years. The results will help you decide how hot, cold, wet, or windy it might be!

Date:

Astronomy

Mar. 04, 2013 Rise Set
Actual Time 6:49 AM HST 6:37 PM HST
Civil Twilight 6:27 AM HST 6:59 PM HST
Nautical Twilight 6:01 AM HST 7:25 PM HST
Astronomical Twilight 5:35 AM HST 7:51 PM HST
Moon 12:41 AM HST (3/4) 12:00 PM HST (3/4)
Length of Visible Light 12h 32m
Length of Day
11h 47m
Waning Gibbous, 50% of the Moon is Illuminated
Mar 4
Waning Gibbous
Mar 11
New
Mar 19
First Quarter
Mar 26
Full
Apr 2
Last Quarter

Hourly Weather History & Observations

Time (HST) Temp. Dew Point Humidity Pressure Visibility Wind Dir Wind Speed Gust Speed Precip Events Conditions
12:53 AM 71.1 °F 53.1 °F 53% 30.17 in 10.0 mi ENE 13.8 mph 23.0 mph N/A   Scattered Clouds
1:53 AM 72.0 °F 55.9 °F 57% 30.16 in 10.0 mi ENE 16.1 mph 25.3 mph N/A   Mostly Cloudy
2:53 AM 71.1 °F 53.1 °F 53% 30.15 in 10.0 mi ENE 11.5 mph 25.3 mph N/A   Mostly Cloudy
3:53 AM 71.1 °F 54.0 °F 55% 30.15 in 10.0 mi ENE 13.8 mph 20.7 mph N/A   Mostly Cloudy
4:53 AM 71.1 °F 54.0 °F 55% 30.15 in 10.0 mi ENE 13.8 mph - N/A   Mostly Cloudy
5:53 AM 71.1 °F 53.1 °F 53% 30.16 in 10.0 mi ENE 12.7 mph 19.6 mph N/A   Mostly Cloudy
6:53 AM 72.0 °F 55.9 °F 57% 30.17 in 10.0 mi ENE 13.8 mph - N/A   Mostly Cloudy
7:53 AM 71.1 °F 57.9 °F 63% 30.19 in 10.0 mi ENE 10.4 mph 20.7 mph N/A   Mostly Cloudy
8:53 AM 73.0 °F 57.9 °F 59% 30.19 in 10.0 mi NE 18.4 mph 24.2 mph N/A   Mostly Cloudy
9:53 AM 75.0 °F 57.0 °F 53% 30.20 in 10.0 mi ENE 13.8 mph 24.2 mph N/A   Mostly Cloudy
10:53 AM 77.0 °F 57.9 °F 52% 30.19 in 10.0 mi NE 17.3 mph 28.8 mph N/A   Mostly Cloudy
11:53 AM 78.1 °F 54.0 °F 43% 30.18 in 10.0 mi ENE 17.3 mph 28.8 mph N/A   Mostly Cloudy
12:53 PM 79.0 °F 55.9 °F 45% 30.15 in 10.0 mi ENE 18.4 mph 25.3 mph N/A   Mostly Cloudy
1:53 PM 79.0 °F 53.1 °F 40% 30.13 in 10.0 mi ENE 16.1 mph 26.5 mph N/A   Scattered Clouds
2:53 PM 79.0 °F 55.0 °F 44% 30.12 in 10.0 mi ENE 13.8 mph 26.5 mph N/A   Scattered Clouds
3:53 PM 78.1 °F 55.0 °F 45% 30.11 in 10.0 mi ENE 18.4 mph 23.0 mph N/A   Scattered Clouds
4:53 PM 75.0 °F 55.0 °F 50% 30.13 in 10.0 mi ENE 17.3 mph - N/A   Scattered Clouds
5:53 PM 73.9 °F 55.0 °F 52% 30.12 in 10.0 mi NE 15.0 mph 23.0 mph N/A   Partly Cloudy
6:53 PM 72.0 °F 55.9 °F 57% 30.13 in 10.0 mi NNE 10.4 mph 24.2 mph N/A   Partly Cloudy
7:53 PM 71.1 °F 55.9 °F 59% 30.14 in 10.0 mi NNE 10.4 mph - N/A   Partly Cloudy
9:53 PM 71.1 °F 54.0 °F 55% 30.14 in 10.0 mi NE 10.4 mph - N/A   Partly Cloudy
10:53 PM 70.0 °F 55.0 °F 59% 30.14 in 10.0 mi NE 8.1 mph - N/A   Partly Cloudy
11:53 PM 70.0 °F 55.0 °F 59% 30.14 in 10.0 mi NE 9.2 mph - N/A   Partly Cloudy